Location: Bothwell
(42.3833°S, 147.0000°E)
Time: 20:54:20
(UTC+11:00)

CUTE-I - Pass Details

Date: 25 September 2022
Orbit: 810 x 823 km, 98.7° (Epoch: 29 November)

Event Time Altitude Azimuth Distance (km) Brightness Sun altitude
Rises 18:46:28 0° 168° (SSE) 3,390 ? -7.3°
Reaches altitude 10° 18:48:50 10° 169° (S) 2,452 ? -7.7°
Maximum altitude 18:54:16 77° 254° (WSW) 859 ? -8.7°
Drops below altitude 10° 18:59:39 10° 339° (NNW) 2,427 ? -9.7°
Sets 19:01:59 0° 340° (NNW) 3,353 ? -10.1°
